Location: London
(51.5074°N, 0.1278°W)
Time: 05:01:43
(UTC+01:00)

Envisat - Pass Details

Date: 05 October 2021
Orbit: 764 x 766 km, 98.2° (Epoch: 23 October)

Event Time Altitude Azimuth Distance (km) Brightness Sun altitude
Rises 05:23:17 0° 21° (NNE) 3,244 6.8 -17.0°
Reaches altitude 10° 05:25:54 10° 33° (NNE) 2,313 6.1 -16.6°
Maximum altitude 05:30:20 29° 94° (E) 1,366 5.1 -15.9°
Drops below altitude 10° 05:34:44 10° 154° (SSE) 2,297 5.6 -15.2°
Sets 05:37:18 0° 165° (SSE) 3,218 6.3 -14.9°
